EUTELSAT 172B

Last updated on Jan. 18, 2020, 4:38 a.m. UTC

1 42741U 17029B   20017.55055028 -.00000010  00000-0  00000-0 0  9999
2 42741   0.0257  94.8638 0000271 306.7368  85.0052  1.00270645 10236
UTC
Height (km)
Latitude
Longitude
Inclination
Orbital Period
UTC large
Height (km)
Speed (km/s)
/
Latitude / Longitude
Inclination (degrees)
Orbital Period (minutes)
Azimuth
Elevation
Range (km)
Doppler Factor
iOS Compass Heading
iOS Angle

Next 30 passes for location: Hong Kong

Rise time Rise Azimuth (degrees) Set time Set Azimuth (degrees) Duration Max altitude (degrees)

No matching passes for this satellites